This is the latest recevied weather packets stored in our database for station/object EA5AFP-11. If no packets are shown the sender has not sent any weather packets the latest 1 day(s).
| Time | Temp. | Humidity | Pressure | Rain* | Wind** | Luminosity | Snow |
|---|---|---|---|---|---|---|---|
| 1778024774 | 17.22° C | 8% | - | 0 mm | 1.34 m/s, 135° | - | - |
| 1778024489 | 17.22° C | 8% | - | 0 mm | 0.89 m/s, 112° | - | - |
| 1778024199 | 16.67° C | 8% | - | 0 mm | 0.89 m/s, 112° | - | - |
| 1778023929 | 16.67° C | 8% | - | 0 mm | 0.89 m/s, 270° | - | - |
| 1778023639 | 16.67° C | 8% | - | 0 mm | 0 m/s | - | - |
| 1778023474 | 17.22° C | 8% | - | 0 mm | 0 m/s | - | - |
| 1778023184 | 17.22° C | 8% | - | 0 mm | 0 m/s | - | - |
| 1778022900 | 17.22° C | 8% | - | 0 mm | 0 m/s | - | - |
| 1778022658 | 17.22° C | 8% | - | 0 mm | 0 m/s | - | - |
| 1778022395 | 17.22° C | 8% | - | 0 mm | 1.79 m/s, 67° | - | - |
| 1778022100 | 17.22° C | 8% | - | 0 mm | 0.89 m/s, 90° | - | - |
| 1778021805 | 17.22° C | 8% | - | 0 mm | 0.45 m/s, 90° | - | - |
| 1778021696 | 17.78° C | 8% | - | 0 mm | 1.34 m/s, 67° | - | - |
| 1778021411 | 17.22° C | 8% | - | 0 mm | 0.45 m/s, 337° | - | - |
| 1778021121 | 17.22° C | 8% | - | 0 mm | 1.34 m/s, 112° | - | - |
| 1778020851 | 17.22° C | 8% | - | 0 mm | 2.24 m/s, 292° | - | - |
| 1778020558 | 17.22° C | 8% | - | 0 mm | 0.45 m/s, 292° | - | - |
| 1778020291 | 17.78° C | 8% | - | 0 mm | 0.89 m/s, 90° | - | - |
| 1778020041 | 17.78° C | 8% | - | 0 mm | 0 m/s | - | - |
| 1778019828 | 17.22° C | 8% | - | 0 mm | 1.34 m/s, 112° | - | - |
| 1778019572 | 17.78° C | 8% | - | 0 mm | 0.45 m/s, 67° | - | - |
| 1778019321 | 17.78° C | 8% | - | 0 mm | 0 m/s | - | - |
| 1778019035 | 17.78° C | 8% | - | 0 mm | 2.68 m/s, 292° | - | - |
| 1778018778 | 17.78° C | 8% | - | 0 mm | 1.34 m/s, 45° | - | - |
| 1778018513 | 17.78° C | 8% | - | 0 mm | 1.34 m/s, 45° | - | - |
* Rain latest hour (hover to see other rain measurements)
** Current wind speed in m/s (hover to see current wind gust speed)